Regional Weather Roundup
Issued by NWS

Home | Current Version | Previous Version | Text Only | Print | Product List | Glossary Off
Versions: 1 2 3 4 5 6 7 8 9 10 11 12 13 14 15 16 17 18 19 20 21 22 23 24 25 26 27 28 29 30 31 32 33 34 35 36 37 38 39 40 41 42 43 44 45 46 47 48 49 50

000
ASUS43 KLOT 201208
RWRIL

ILLINOIS REGIONAL WEATHER ROUNDUP
NATIONAL WEATHER SERVICE CHICAGO/ROMEOVILLE IL
700 AM CDT FRI APR 20 2018

NOTE: "FAIR" INDICATES FEW OR NO CLOUDS BELOW 12,000 FEET WITH NO
SIGNIFICANT WEATHER AND/OR OBSTRUCTIONS TO VISIBILITY.

* THESE STATIONS ARE NOT UNDER NWS QUALITY CONTROL. THEY ALSO MAY NOT
  REPORT WEATHER SUCH AS PRECIPITATION OR FOG.

ILZ001-002-007-009-015-016-024-201300-
NORTHWEST ILLINOIS

CITY           SKY/WX    TMP DP  RH WIND       PRES   REMARKS
MOLINE         FAIR      26  23  88 CALM      30.51R
6HR MIN TEMP:  24; 6HR MAX TEMP:  30;

STERLING*      FAIR      31  29  92 CALM      30.51S
SAVANNA*       FAIR      25  24  96 N3        30.52R
$$

ILZ003-004-008-010-011-017-018-201300-
NORTH CENTRAL ILLINOIS

CITY           SKY/WX    TMP DP  RH WIND       PRES   REMARKS
ROCKFORD       FAIR      26  24  92 CALM      30.52R
6HR MIN TEMP:  24; 6HR MAX TEMP:  31;

FREEPORT*      FAIR      28  24  86 CALM      30.52R
ROCHELLE*      FAIR      25  25  99 CALM      30.51S
DE KALB*       FAIR      32  25  76 NW6       30.50S WCI  26
PERU*          FAIR      31  26  80 NW3       30.52R
$$

ILZ005-006-012>014-019>023-201300-
NORTHEAST ILLINOIS

CITY           SKY/WX    TMP DP  RH WIND       PRES   REMARKS
CHICAGO-OHARE  FAIR      39  23  52 CALM      30.49R
6HR MIN TEMP:  36; 6HR MAX TEMP:  39;

CHICAGO-MIDWAY FAIR      36  26  67 CALM      30.50R
6HR MIN TEMP:  33; 6HR MAX TEMP:  40;

AURORA         FAIR      27  24  89 W5        30.49R WCI  22
6HR MIN TEMP:  23; 6HR MAX TEMP:  29;

LANSING*       FAIR      30  28  90 CALM      30.51R
JOLIET*        FAIR      30  28  92 CALM      30.50R
WAUKEGAN       FAIR      35  24  64 NW3       30.49R
6HR MIN TEMP:  27; 6HR MAX TEMP:  36;

DUPAGE AIRPORT FAIR      29  24  82 CALM      30.49R
6HR MIN TEMP:  25; 6HR MAX TEMP:  32;

KANKAKEE*      FAIR      30  24  78 W3        30.51R
WHEELING       FAIR      33  27  78 CALM      30.51R
6HR MIN TEMP:  29; 6HR MAX TEMP:  35;

MORRIS*        FAIR      30  25  81 CALM      30.50R
ROMEOVILLE*    FAIR      32  27  80 CALM      30.50R
$$

LMZ740>746-201300-
SOUTHERN LAKE MICHIGAN

STATION/POSITION SKY/WX   TEMP    WIND        PRES    VSBY  WAVE
                          AIR SEA DIR/SP/G                  HT/PER
                          (F)     (DEG/KT/KT) (MB)    (MI)  (FT/S)
HARRISON CRIB              41     330/  6/  7   N/A
BURNHAM HARBOR             42     350/  8/  9   N/A
CALUMET HARBOR             39     290/  2/  3 1032.0R
BURNS HARBOR               39     350/  2/  3 1032.8R
MICHIGAN CITY              35     210/  2/  3   N/A
$$

ILZ025>027-034>036-040-047-049-050-058-095>099-201300-
WEST-CENTRAL ILLINOIS

CITY           SKY/WX    TMP DP  RH WIND       PRES   REMARKS
QUINCY         CLEAR     35  26  69 E7        30.49R WCI  29
GALESBURG*     FAIR      29  26  87 CALM      30.51R
MACOMB*        CLEAR     29  24  81 CALM      30.53R
JACKSONVILLE*  CLEAR     28  24  85 CALM      30.50R
PITTSFIELD*    CLEAR     32  26  81 CALM      30.51R
$$

ILZ028>032-037-038-041>044-048-051>054-059>061-201300-
CENTRAL ILLINOIS

CITY           SKY/WX    TMP DP  RH WIND       PRES   REMARKS
PONTIAC        FAIR      28  28  99 CALM      30.52R
BLOOMINGTON    FAIR      30  25  81 N3        30.51R
DECATUR        FAIR      27  25  92 N3        30.50R
PEORIA         FAIR      32  26  78 CALM      30.51R
6HR MIN TEMP:  28; 6HR MAX TEMP:  40;

LACON*         FAIR      28  26  94 CALM      30.51S
LINCOLN*       FAIR      31  26  83 CALM      30.51R
SPRINGFIELD    FAIR      32  29  88 NE3       30.50R
6HR MIN TEMP:  30; 6HR MAX TEMP:  39;

TAYLORVILLE    FAIR      30  28  91 CALM      30.50R
6HR MIN TEMP:  29; 6HR MAX TEMP:  38;

$$

ILZ033-039-045-046-055>057-062-063-201300-
EAST-CENTRAL ILLINOIS

CITY           SKY/WX    TMP DP  RH WIND       PRES   REMARKS
CHAMPAIGN      FAIR      37  24  59 NE9       30.49R WCI  30
DANVILLE*      FAIR      31  25  81 N5        30.47R WCI  26
RANTOUL*       FAIR      34  27  73 N6        30.49R WCI  29
MATTOON        FAIR      30  22  72 N6        30.48R WCI  24
PARIS*         FAIR      32  24  73 NE3       30.50R
$$

ILZ079-100>102-201300-
SOUTHWEST ILLINOIS

CITY           SKY/WX    TMP DP  RH WIND       PRES   REMARKS
ALTON          CLEAR     34  28  80 NE6       30.48R WCI  29
BELLEVILLE     CLEAR     37  28  69 NE5       30.47R WCI  33
CAHOKIA*       CLEAR     35  27  72 CALM      30.47R
SPARTA*        CLEAR     37  28  71 E5        30.48R WCI  33
$$

ILZ064>066-069>071-074>076-080>082-084>086-088>090-092>094-201300-
SOUTH-CENTRAL ILLINOIS

CITY           SKY/WX    TMP DP  RH WIND       PRES   REMARKS
CARBONDALE     FAIR      39  23  52 NE3       30.46R
6HR MIN TEMP:  34; 6HR MAX TEMP:  39;

CAIRO*         FAIR      39  28  62 N3        30.44R
EFFINGHAM*     FAIR      33  27  78 CALM      30.50R
MARION         PTCLDY    32  25  74 N6        30.46R WCI  26
MT. VERNON     FAIR      37  21  52 NE9       30.47R WCI  30
CENTRALIA*     CLEAR     38  25  60 CALM      30.47R
SALEM*         FAIR      39  20  46 NE3       30.47R
METROPOLIS*    FAIR      36  27  68 CALM      30.45R
$$

ILZ067-068-072-073-078-083-087-091-201300-
SOUTHEAST ILLINOIS

CITY           SKY/WX    TMP DP  RH WIND       PRES   REMARKS
LAWRENCEVILLE  FAIR      38  19  46 NE8       30.48R WCI  32
FLORA*         FAIR      36  22  56 N5        30.49R WCI  32
FAIRFIELD*     FAIR      36  22  56 N6        30.47R WCI  32
HARRISBURG*    FAIR      39  22  50 NE6       30.46R WCI  35
ROBINSON*      FAIR      33  21  63 NE5       30.50R WCI  28
CARMI*         FAIR      36  26  67 NE7       30.46R WCI  30
$$

ABBREVIATIONS USED IN REMARKS
   TC - TEMPERATURE IN CELSIUS
  WCI - WIND CHILL INDEX
   HX - HEAT INDEX
  VSB - VISIBILITY
$$





USA.gov is the U.S. government's official web portal to all federal, state and local government web resources and services.